EZY14GA EGNT-LIRF

Flight info

Callsign EZY14GA
Flight time N/A
Altitude 23000
Route GIRLI P18 GASKO Y250 MAMUL/N0455F350 L603 DOLAS DCT NAVPI DCT LARAS/N0449F370 DCT ASBON DCT TUSUK DCT ULNOK L607 TEDGO DCT BATUB DCT TIRUL Y740 NATAG DCT LORLO DCT RENTA DCT VABOK DCT GAVRA DCT RITEB
Aircraft A320/M-SDE3FGHIRWY/LB1

Departure

Time 2026-04-27 16:22
Airport Newcastle International Airport (EGNT)

Arrival

Time N/A
Airport Rome–Fiumicino Leonardo da Vinci International Airport (LIRF)
Time Latitude Longitude Altitude Speed Heading
2026-04-27 16:13 55.03666 -1.70778 267 ft 0 kts
2026-04-27 16:15 55.03642 -1.70781 267 ft 3 kts
2026-04-27 16:16 55.03605 -1.70792 267 ft 3 kts 45°
2026-04-27 16:16 55.03599 -1.70806 267 ft 0 kts 94°
2026-04-27 16:19 55.03599 -1.70801 267 ft 2 kts 94°
2026-04-27 16:20 55.03545 -1.70643 267 ft 10 kts 182°
2026-04-27 16:20 55.03471 -1.70648 267 ft 4 kts 180°
2026-04-27 16:20 55.03374 -1.70574 267 ft 13 kts 77°
2026-04-27 16:21 55.03398 -1.70466 267 ft 0 kts 66°
2026-04-27 16:21 55.03652 -1.69506 257 ft 109 kts 65°
2026-04-27 16:22 55.04045 -1.68025 354 ft 152 kts 63°
2026-04-27 16:22 55.04966 -1.64764 1842 ft 150 kts 59°
2026-04-27 16:22 55.05437 -1.63082 2340 ft 162 kts 60°
2026-04-27 16:23 55.05936 -1.61177 2606 ft 184 kts 61°
2026-04-27 16:23 55.06635 -1.56450 3648 ft 221 kts 100°
2026-04-27 16:23 55.05828 -1.54100 4318 ft 240 kts 137°
2026-04-27 16:24 55.04231 -1.52870 4693 ft 268 kts 169°
2026-04-27 16:24 55.00356 -1.52681 6086 ft 286 kts 184°
2026-04-27 16:25 54.96457 -1.54401 7703 ft 291 kts 209°
2026-04-27 16:25 54.92979 -1.58032 9329 ft 297 kts 213°
2026-04-27 16:26 54.89329 -1.61758 10603 ft 315 kts 212°
2026-04-27 16:26 54.85270 -1.65888 11033 ft 361 kts 212°
2026-04-27 16:27 54.80817 -1.70428 12088 ft 377 kts 212°
2026-04-27 16:27 54.73902 -1.77488 14050 ft 390 kts 213°
2026-04-27 16:28 54.68812 -1.81068 15167 ft 403 kts 193°
2026-04-27 16:28 54.63236 -1.82812 16289 ft 411 kts 192°
2026-04-27 16:29 54.54672 -1.85519 17883 ft 423 kts 192°
2026-04-27 16:30 54.48841 -1.87368 18870 ft 430 kts 192°
2026-04-27 16:30 54.42910 -1.89227 19758 ft 437 kts 193°
2026-04-27 16:31 54.33851 -1.92040 20992 ft 449 kts 193°
2026-04-27 16:31 54.27631 -1.93750 21754 ft 459 kts 186°
2026-04-27 16:32 54.21222 -1.92686 22467 ft 471 kts 165°
2026-04-27 16:32 54.18118 -1.90803 22767 ft 476 kts 155°
2026-04-27 16:33 54.12248 -1.85360 23482 ft 483 kts 147°
2026-04-27 16:33 54.09382 -1.82338 23840 ft 486 kts 146°
2026-04-27 16:33 54.06517 -1.79209 24140 ft 490 kts 145°
2026-04-27 16:33 54.03638 -1.76063 24458 ft 492 kts 146°
2026-04-27 16:34 54.00732 -1.72947 24773 ft 495 kts 146°
2026-04-27 16:34 53.97797 -1.69868 25058 ft 498 kts 147°
2026-04-27 16:34 53.94824 -1.66801 25311 ft 502 kts 148°
2026-04-27 16:34 53.91825 -1.63740 25594 ft 505 kts 148°
2026-04-27 16:35 53.88960 -1.60832 25876 ft 507 kts 148°
2026-04-27 16:35 53.85798 -1.57625 26202 ft 510 kts 148°
2026-04-27 16:35 53.79778 -1.51485 27076 ft 506 kts 148°
2026-04-27 16:36 53.76757 -1.48393 27362 ft 508 kts 148°
2026-04-27 16:36 53.73729 -1.45302 27611 ft 510 kts 148°
2026-04-27 16:36 53.70683 -1.42197 27829 ft 513 kts 149°
2026-04-27 16:36 53.67614 -1.39082 28070 ft 516 kts 149°
2026-04-27 16:37 53.64531 -1.35967 28305 ft 518 kts 149°
2026-04-27 16:37 53.61349 -1.33083 28549 ft 519 kts 157°
2026-04-27 16:37 53.57975 -1.30980 28889 ft 517 kts 166°
2026-04-27 16:37 53.54473 -1.29681 29246 ft 513 kts 175°
2026-04-27 16:38 53.50928 -1.29118 29579 ft 511 kts 179°
2026-04-27 16:38 53.47421 -1.27986 29921 ft 517 kts 162°
2026-04-27 16:38 53.44196 -1.25273 30246 ft 519 kts 144°
2026-04-27 16:38 53.42372 -1.22706 30434 ft 517 kts 132°
2026-04-27 16:39 53.40247 -1.17905 30702 ft 510 kts 114°
2026-04-27 16:39 53.38994 -1.12429 31007 ft 500 kts 99°
2026-04-27 16:39 53.38077 -1.06817 31318 ft 500 kts 101°
2026-04-27 16:39 53.36867 -1.00105 31753 ft 500 kts 103°
2026-04-27 16:40 53.36155 -0.96369 31987 ft 499 kts 104°
2026-04-27 16:40 53.35082 -0.90853 32316 ft 498 kts 104°
2026-04-27 16:40 53.34054 -0.85576 32647 ft 496 kts 104°
2026-04-27 16:40 53.33038 -0.80349 32901 ft 498 kts 105°
2026-04-27 16:41 53.31868 -0.74843 32618 ft 511 kts 107°
2026-04-27 16:41 53.30565 -0.69221 31959 ft 532 kts 109°